Tracking 28790 objects as of 18-Apr-2024
HD Live streaming from Space Station
objects crossing your sky now

COSMOS 2251 DEB

Track COSMOS 2251 DEB now!
10-day predictions


NORAD ID: 33828
Int'l Code: 1993-036BV
Perigee: 741.4 km
Apogee: 785.5 km
Inclination: 74.0 °
Period: 100.0 minutes
Semi major axis: 7134 km
RCS: 0.1061 m2 (medium)
Launch date: June 16, 1993
Source: Commonwealth of Independent States (former USSR) (CIS)
Launch site: PLESETSK MISSILE AND SPACE COMPLEX (PKMTR)

Note: This is SATELLITE DEBRIS
Your satellite tracking list
Your tracking list is empty




NASA's NSSDC Master Catalog

Two Line Element Set (TLE):
1 33828U 93036BV  24108.87477670  .00005162  00000-0  16144-2 0  9998
2 33828  74.0473 278.1227 0030897 142.7718 335.6550 14.40674450796045
Source of the keplerian elements: AFSPC